スペースウォッチ彗星

293P/Spacewatch (2014)

English version
Home page
Updated on May 8, 2015

---------------------------------------------------------------------

・ プロフィール

符号 293P/2013 R2
検出日 2013年9月14日
検出光度 21.6等
検出者 J. V. Scotti (Spacewatch)

・ 写真集

・ 軌道要素

Epoch 2014 Jan. 23.0 TT = JDT 2456680.5
T 2014 Jan. 10.28213 TT                                 MPCW
q   2.1117506            (2000.0)            P               Q
n   0.14197510     Peri.   41.15150     -0.48571227     -0.86038311
a   3.6391050      Node    78.43677     +0.75508750     -0.50193733
e   0.4197061      Incl.    9.06469     +0.44037082     -0.08831655
P   6.94
From 242 observations 2006 Nov. 15-2014 June 1, mean residual 0".5.

・ 光度変化

        m1 = 14.5 + 5 logΔ + 10.0 log r

---------------------------------------------------------------------

軌道要素はM.P.E.C. 2015-A10に掲載されたものです。
光度グラフはComet for Windowsで作成したものです。

---------------------------------------------------------------------

Copyright(C) Seiichi Yoshida (comet@aerith.net). All rights reserved.